Regional Weather Roundup
Issued by NWS Sioux Falls, SD

Home | Current Version | Previous Version | Text Only | Print | Product List | Glossary On
Versions: 1 2 3 4 5 6 7 8 9 10 11 12 13 14 15 16 17 18 19 20 21 22 23 24 25 26 27 28 29 30 31 32 33 34 35 36 37 38 39 40 41 42 43 44 45 46 47 48 49 50
514
ASUS43 KFSD 162210
RWRFSD

WEATHER ROUNDUP FOR SE SOUTH DAKOTA/SW MINNESOTA/NW IOWA
NATIONAL WEATHER SERVICE SIOUX FALLS SD
500 PM CDT WED AUG 16 2017

NOTE: "FAIR" INDICATES FEW OR NO CLOUDS BELOW 12,000 FEET WITH NO
SIGNIFICANT WEATHER AND OR OBSTRUCTIONS TO VISIBILITY.


SDZ038>040-050-052>070-162300-
SOUTHEAST SOUTH DAKOTA

CITY           SKY/WX    TMP DP  RH WIND       PRES   REMARKS
BROOKINGS      HVY RAIN  66  65  96 N8        29.75F
CHAMBERLAIN    LGT RAIN  65  65 100 W12G17    29.86S
HURON          LGT RAIN  67  66  97 NW12      29.79S
MADISON        LGT RAIN  64  64 100 N6        29.76F
MITCHELL       RAIN      67  66  97 NW13G21   29.79F FOG
SIOUX FALLS    LGT RAIN  68  68 100 NW14      29.72F
WINNER         CLOUDY    66  63  90 NW12      29.90S
YANKTON        CLOUDY    68  64  87 W14G23    29.78S
$$

MNZ071-072-080-081-089-090-097-098-162300-
SOUTHWEST MINNESOTA

CITY           SKY/WX    TMP DP  RH WIND       PRES   REMARKS
FAIRMONT       HVY RAIN  72  72 100 S20       29.69F FOG
JACKSON        CLOUDY    70  70 100 S12       29.69F
LUVERNE        RAIN      68  64  88 NW5       29.68F
MARSHALL       RAIN      67  66  97 NE10      29.71F FOG
MONTEVIDEO     LGT RAIN  68  68 100 E8        29.75F
PIPESTONE      RAIN      66  64  94 NE8       29.70F
REDWOOD FALLS  HVY RAIN  69  67  93 NE7G17    29.69F VSB 1/2
TRACY          HVY RAIN  68  68 100 NE12      29.70F
WINDOM         RAIN      72  70  94 E5        29.69F
WORTHINGTON    LGT RAIN  69  66  90 S7        29.69F
$$

IAZ001>003-012>014-020>022-031-032-NEZ013-014-SDZ071-162300-
NORTHWEST IOWA

CITY           SKY/WX    TMP DP  RH WIND       PRES   REMARKS
CHEROKEE       CLOUDY    77  69  78 SW20G25   29.70S
DENISON        PTSUNNY   79  68  69 W15G24    29.75R
ESTHERVILLE    LGT RAIN  71  69  93 S13       29.69S
LE MARS        CLOUDY    70  66  88 W9G17     29.72R FOG
ORANGE CITY    PTSUNNY   72  70  94 SW12      29.69S
SHELDON        CLOUDY    73  72  94 S10       29.66F
SIOUX CITY     CLOUDY    72  67  84 NW10      29.75R
SPENCER        CLOUDY    75  70  84 S9        29.68F
STORM LAKE       N/A     77  68  73 SW15G22   29.71S
$$

ABBREVIATIONS USED IN REMARKS
   TC - TEMPERATURE IN CELSIUS
  WCI - WIND CHILL INDEX
   HX - HEAT INDEX
  VSB - VISIBILITY





USA.gov is the U.S. government's official web portal to all federal, state and local government web resources and services.